User: anonymous   Login
Location: Bangkok
(13.7500°N, 100.5170°E)
Time: 14:34:54
(UTC+07:00)
Language:

ERBS - Orbit

View from above orbital plane
View from above orbital plane
View from above satellite
View from above satellite

Ground track
Ground track

The orbit data is extracted from the following two-line orbital elements,

1 15354U 84108B   17230.49000566 +.00002805 +00000-0 +69398-4 0  9996
2 15354 057.0066 230.0833 0007832 194.5410 165.5421 15.43962936807554
Epoch (UTC): 18 August 2017 11:45:36
Eccentricity: 0.0007832
inclination: 57.0066°
perigee height: 429 km
apogee height: 440 km
right ascension of ascending node: 230.0833°
argument of perigee: 194.5410°
revolutions per day: 15.43962936
mean anomaly at epoch: 165.5421°
orbit number at epoch: 80755

The dashed part of the orbit path shows where the satellite is in the earth's shadow,  

DLR